Location: Coopersdale
(40.3556°N, 78.9372°W)
Time: 22:46:19
(UTC+00:00)

Courier 1B - Pass Details

Date: 23 January 2021
Orbit: 962 x 1209 km, 28.3° (Epoch: 25 February)

Event Time Altitude Azimuth Distance (km) Brightness Sun altitude
Exits shadow 09:06:19 12° 152° (SSE) 2,586 9.9 -39.1°
Drops below altitude 10° 09:06:55 10° 148° (SSE) 2,736 10.0 -39.0°
Sets 09:10:18 0° 133° (SE) 3,718 11.0 -38.3°
